This is the latest recevied weather packets stored in our database for station/object p43g-13. If no packets are shown the sender has not sent any weather packets the latest 10 day(s).
| Time | Temp. | Humidity | Pressure | Rain* | Wind** | Luminosity | Snow |
|---|---|---|---|---|---|---|---|
| 1787483944 | 28.33° C | 88% | 1011.5 hPa | 0 mm | - | 54 W/m² | - |
| 1787483631 | 28.33° C | 88% | 1011.5 hPa | 0 mm | - | 52 W/m² | - |
| 1787483332 | 27.78° C | 88% | 1011.8 hPa | 0 mm | - | 48 W/m² | - |
| 1787483032 | 27.78° C | 88% | 1011.5 hPa | 0 mm | - | 36 W/m² | - |
| 1787482720 | 27.78° C | 88% | 1011.6 hPa | 0 mm | - | 28 W/m² | - |
| 1787482420 | 27.78° C | 88% | 1011.7 hPa | 0 mm | - | 25 W/m² | - |
| 1787482120 | 27.78° C | 88% | 1011.7 hPa | 0 mm | - | 21 W/m² | - |
| 1787481819 | 27.78° C | 88% | 1011.7 hPa | 0 mm | - | 17 W/m² | - |
| 1787481519 | 27.78° C | 88% | 1011.7 hPa | 0 mm | - | 12 W/m² | - |
| 1787481211 | 27.78° C | 88% | 1011.9 hPa | 0 mm | - | 7 W/m² | - |
| 1787480911 | 27.78° C | 88% | 1011.8 hPa | 0 mm | - | 4 W/m² | - |
| 1787480611 | 27.78° C | 88% | 1011.6 hPa | 0 mm | - | 2 W/m² | - |
| 1787480338 | 27.78° C | 89% | 1011.8 hPa | 0 mm | - | 0 W/m² | - |
| 1787480012 | 27.78° C | 90% | 1011.5 hPa | 0 mm | - | 0 W/m² | - |
| 1787479711 | 27.78° C | 90% | 1011.7 hPa | 0 mm | - | 0 W/m² | - |
| 1787479410 | 27.78° C | 90% | 1011.8 hPa | 0 mm | - | 0 W/m² | - |
| 1787479111 | 27.78° C | 90% | 1011.8 hPa | 0 mm | - | 0 W/m² | - |
| 1787478811 | 27.78° C | 90% | 1012.1 hPa | 0 mm | - | 0 W/m² | - |
| 1787478511 | 27.78° C | 90% | 1011.9 hPa | 0 mm | - | 0 W/m² | - |
| 1787478211 | 27.78° C | 90% | 1011.8 hPa | 0 mm | - | 0 W/m² | - |
| 1787477911 | 27.78° C | 90% | 1011.8 hPa | 0 mm | - | 0 W/m² | - |
| 1787477611 | 27.78° C | 90% | 1011.8 hPa | 0 mm | - | 0 W/m² | - |
| 1787477311 | 27.78° C | 90% | 1011.7 hPa | 0 mm | - | 0 W/m² | - |
| 1787477011 | 27.78° C | 90% | 1011.9 hPa | 0 mm | - | 0 W/m² | - |
| 1787476712 | 27.78° C | 89% | 1011.6 hPa | 0 mm | - | 0 W/m² | - |
* Rain latest hour (hover to see other rain measurements)
** Current wind speed in m/s (hover to see current wind gust speed)